Theta_e
304 308 307 309 310 306 310 312 311 313 315 314 316 315 316 315 319 317 322 316 315 315 317 324 325 324 327 332 333 332 333 334 338 340 340 339 339 338 338 337 336 333 332 330 328 332 335 332 329
301 307 309 308 306 307 308 307 312 313 313 312 315 315 313 315 316 316 317 314 313 314 315 315 325 326 329 332 333 333 333 334 337 340 340 340 339 339 339 338 337 335 332 330 331 337 335 332 329
301 306 309 307 304 305 306 304 307 309 312 311 311 312 313 314 314 315 313 313 313 313 314 314 320 331 330 333 333 333 334 335 336 340 340 340 340 340 339 338 338 336 332 331 331 338 332 331 328
304 308 308 307 307 305 305 303 305 307 308 308 310 310 311 312 312 310 311 311 312 312 313 315 318 335 334 334 333 333 334 336 336 340 340 340 340 340 339 338 338 336 334 330 333 331 329 330 328
307 310 304 308 307 306 304 304 305 305 305 305 308 309 309 310 310 310 309 309 309 311 313 314 322 335 339 339 334 333 333 333 334 339 340 340 339 339 339 338 338 337 335 331 331 328 329 329 329
310 309 306 304 304 304 303 305 305 304 305 305 305 305 306 306 307 307 308 308 308 309 309 310 314 334 339 340 336 334 333 333 332 334 339 339 339 339 339 338 337 337 335 332 331 329 329 329 329
305 307 306 304 303 303 302 305 305 303 304 304 305 305 306 306 306 306 306 307 307 307 308 310 313 327 336 342 339 337 334 333 333 331 334 339 338 338 338 337 337 337 334 332 334 330 329 329 329
304 306 305 304 303 303 303 302 302 302 303 304 305 306 303 305 306 306 306 306 307 307 307 309 312 332 336 336 341 338 337 336 334 333 331 336 337 337 336 335 336 335 332 332 335 332 331 330 329
306 305 303 300 301 302 298 297 298 298 297 299 300 300 300 300 301 303 305 306 307 307 307 307 308 318 333 334 338 340 339 337 337 335 333 331 333 333 332 332 333 333 332 332 335 335 331 330 329
303 303 300 300 296 296 295 295 294 294 294 294 294 295 296 295 294 294 296 300 303 306 307 307 307 310 322 331 332 339 339 339 336 336 335 333 332 332 332 332 333 333 332 332 335 335 330 330 330
294 298 295 295 295 295 293 292 292 293 292 292 292 292 292 292 292 292 293 293 295 301 305 306 306 307 310 328 330 334 336 338 338 337 336 335 335 333 333 333 334 334 333 334 335 335 331 330 330
294 294 294 294 294 292 292 292 292 292 292 292 293 293 292 292 293 293 293 294 293 294 301 303 304 306 307 310 327 328 335 335 337 337 335 335 335 335 334 334 334 334 334 334 335 335 333 330 329
293 292 292 292 292 292 292 292 292 292 292 293 293 293 293 293 293 293 293 293 294 294 295 298 301 304 306 307 312 326 329 330 333 337 337 335 335 335 334 334 334 335 334 334 334 335 333 330 329
292 292 292 292 292 292 292 292 292 293 293 293 293 293 293 293 293 294 295 295 294 294 294 295 295 301 304 306 307 313 327 330 331 332 335 337 337 335 335 335 334 335 335 334 334 335 332 330 329
292 292 292 292 292 292 292 292 292 293 293 292 293 293 294 294 294 293 294 295 295 294 294 294 294 295 301 304 306 307 321 326 328 332 332 335 336 336 335 335 334 334 334 335 334 335 331 329 329
292 291 292 292 292 292 292 293 293 293 293 293 293 293 293 293 294 294 295 294 295 295 294 294 294 295 297 302 305 306 307 322 325 329 331 333 335 335 335 334 334 334 334 335 335 334 329 329 329
291 292 292 292 292 292 292 293 293 293 293 293 293 293 294 294 294 294 294 294 294 294 294 294 295 296 297 299 304 306 306 318 324 327 331 333 333 334 335 335 334 333 333 334 334 332 329 328 327
290 291 292 292 292 292 292 292 292 292 293 293 293 293 293 293 294 294 294 294 294 294 294 294 295 295 296 297 303 306 305 306 322 324 327 330 332 334 333 334 335 334 333 334 331 328 328 325 319
291 291 291 291 292 292 293 292 292 293 292 292 292 292 291 291 292 293 294 293 293 294 294 294 294 294 295 297 301 305 305 307 320 324 325 327 328 333 333 332 333 333 333 333 332 319 325 316 306
292 292 292 292 293 292 292 292 293 292 291 291 290 289 289 289 289 289 290 292 293 293 293 293 294 294 295 297 300 304 304 312 320 326 325 327 326 328 329 330 333 332 332 331 330 320 317 312 303
293 293 293 293 292 292 292 291 291 291 290 290 290 289 289 288 288 288 289 289 290 292 294 293 292 294 294 297 299 302 303 315 324 326 326 327 325 327 326 328 331 331 328 326 324 322 313 314 304
292 292 292 292 291 291 291 291 291 291 291 289 289 288 288 287 287 287 287 287 288 290 292 294 294 293 293 295 297 300 302 312 323 324 324 323 325 328 327 328 327 328 326 323 324 323 321 318 308
290 291 290 291 290 290 289 290 290 290 290 289 288 288 287 286 285 285 285 286 288 290 291 293 294 293 294 294 296 299 301 306 322 325 324 325 325 327 327 327 325 326 326 325 325 323 322 318 314
290 287 288 280 280 284 286 290 291 290 289 288 287 286 285 285 284 284 284 285 287 290 290 293 293 293 294 294 295 299 301 305 315 323 323 324 327 325 324 325 326 324 326 326 325 324 322 318 310
281 281 282 282 280 285 288 291 291 289 288 287 286 285 284 284 283 283 284 284 286 289 290 291 294 293 294 294 295 300 302 309 314 321 323 323 323 324 325 323 323 324 321 324 325 324 323 312 307
281 283 289 290 285 290 290 288 290 288 288 287 286 285 284 283 283 283 283 283 285 288 289 290 293 294 294 295 296 301 303 310 316 320 322 322 323 322 323 322 321 323 323 323 323 322 322 310 304
280 287 288 291 273 282 285 288 289 289 288 287 285 284 283 282 282 282 282 283 284 287 288 290 292 295 296 296 297 302 304 311 316 320 321 322 322 323 321 320 319 321 321 321 323 319 315 308 303
286 289 287 288 287 284 285 287 288 286 286 285 283 284 282 282 282 281 282 282 284 286 287 290 293 297 299 299 303 304 305 310 317 317 318 320 317 316 315 316 318 317 318 319 315 314 315 308 304
282 284 290 293 288 287 287 287 281 281 283 284 283 282 282 281 281 281 281 282 284 285 287 290 295 298 301 305 310 306 307 310 315 316 318 315 314 315 315 315 314 317 315 316 314 315 315 316 310
282 282 290 291 290 288 290 290 280 281 283 284 283 281 281 281 280 281 281 282 283 283 285 289 293 299 303 306 311 307 307 315 312 313 316 314 315 315 315 315 315 312 314 314 314 313 314 314 314
Wind_Speed
1 4 8 8 2 2 5 8 3 5 3 7 8 6 10 9 5 4 6 12 17 20 22 21 17 25 29 33 35 36 37 37 36 35 34 34 32 31 30 28 27 27 25 24 23 21 20 19 16
2 5 9 3 3 3 9 8 12 12 8 2 12 8 5 7 20 19 19 20 22 21 22 27 19 23 28 33 35 36 37 39 38 36 35 35 35 33 32 30 28 27 26 25 24 24 22 20 18
3 10 6 3 4 13 14 7 12 9 25 9 4 6 5 3 3 6 15 23 22 26 24 26 23 22 28 32 35 36 37 39 40 38 37 35 36 35 33 31 30 28 27 26 25 24 24 21 20
5 6 2 3 17 21 13 5 3 1 3 8 6 8 12 21 11 15 21 24 28 27 26 27 25 22 29 33 36 37 37 39 41 40 38 37 37 37 35 33 31 29 28 26 26 24 25 23 22
8 4 3 5 18 21 5 2 2 2 4 4 2 5 16 16 16 24 26 27 27 23 23 24 24 21 26 34 37 37 36 38 42 43 41 39 39 39 37 35 33 31 29 28 27 26 25 25 24
5 2 1 11 24 25 1 6 3 5 12 11 10 13 30 15 21 25 24 25 28 27 27 27 23 21 26 34 38 39 39 40 43 45 44 42 41 40 39 37 35 33 31 30 28 28 27 26 25
5 3 7 9 21 16 2 2 3 3 5 2 12 6 9 9 16 23 24 24 32 32 31 27 23 20 24 34 38 40 41 42 43 46 46 45 43 42 40 38 37 35 33 31 28 30 29 27 26
5 3 5 5 17 22 2 6 7 8 4 11 6 5 5 18 28 37 36 36 30 28 23 21 20 16 25 31 38 40 41 44 45 46 46 47 45 43 41 40 39 38 36 34 31 31 30 29 28
4 1 8 6 5 10 10 11 8 10 20 17 17 31 35 44 47 49 50 44 37 30 29 25 21 18 21 29 36 40 41 42 46 46 47 46 45 44 42 41 41 40 38 36 35 32 32 32 29
4 4 7 5 1 5 16 7 17 13 24 34 30 39 39 46 49 47 53 58 53 48 38 37 29 20 19 24 32 40 42 42 44 48 48 47 47 47 45 44 43 41 40 39 37 34 35 34 33
3 6 3 4 9 13 16 20 9 8 18 23 28 39 41 44 43 44 46 52 57 58 56 47 38 27 21 18 30 37 40 42 44 48 50 47 49 48 47 46 44 42 41 41 39 38 38 36 36
4 10 13 5 10 12 12 19 11 21 35 31 43 47 47 39 38 40 43 43 49 55 62 60 51 38 29 20 25 36 39 40 43 46 51 50 49 50 49 49 47 46 45 44 44 42 39 38 37
6 5 14 18 22 18 17 19 23 32 40 40 41 39 43 40 40 40 43 45 44 49 56 64 60 51 38 29 24 34 40 40 40 43 49 52 51 52 54 53 52 50 49 49 47 45 40 40 40
3 12 20 24 31 24 14 19 19 32 48 44 39 41 40 40 41 42 40 43 44 44 48 55 59 58 51 37 32 29 39 41 42 43 46 52 55 54 55 56 55 56 53 51 50 46 43 43 41
7 7 13 22 22 9 7 13 17 44 48 31 36 44 47 49 47 42 44 44 43 45 45 46 49 53 56 49 38 33 35 41 42 46 46 46 55 57 57 57 59 59 57 54 52 46 46 45 43
3 2 6 16 2 5 10 21 26 40 33 30 38 41 39 43 48 49 48 47 44 43 44 45 46 45 50 52 43 37 33 40 43 46 48 49 50 56 58 56 58 61 59 59 54 50 50 47 45
4 6 9 15 8 6 8 15 21 42 24 31 42 42 41 43 44 43 43 46 45 45 45 44 46 47 46 49 44 36 34 36 44 45 47 45 51 51 57 58 58 60 61 59 55 55 54 53 49
8 6 11 15 7 8 20 28 28 43 26 32 36 36 35 35 38 37 37 40 41 43 43 45 50 48 47 43 43 38 37 35 41 44 46 42 47 52 54 57 61 59 61 56 60 60 57 54 50
12 16 21 24 21 17 24 24 30 23 22 25 18 8 16 22 26 26 23 25 32 39 43 46 48 49 48 46 46 40 37 36 40 43 43 44 43 49 57 61 57 59 61 58 64 62 58 53 43
15 20 24 23 18 10 19 28 26 23 15 7 3 9 17 27 31 30 31 29 29 34 39 43 43 43 45 43 47 43 35 34 39 41 42 41 39 38 47 50 57 59 59 64 66 59 52 46 43
16 17 19 20 20 13 19 18 17 5 5 1 5 10 14 20 29 32 33 35 35 36 39 42 42 40 44 42 44 47 33 31 39 42 41 39 39 44 37 51 53 58 53 53 47 46 49 50 45
15 8 14 14 13 8 5 11 31 8 5 3 12 17 22 28 31 32 35 40 35 37 38 39 42 38 41 39 40 46 40 35 39 43 43 40 36 42 35 47 46 52 53 41 46 46 42 44 46
9 7 11 16 16 12 6 6 5 4 4 5 10 21 24 26 29 32 36 38 36 32 37 35 35 39 38 37 34 39 40 35 35 42 42 45 36 41 41 42 42 41 50 50 54 51 53 53 55
6 5 12 4 2 0 5 8 13 3 2 6 11 19 24 26 29 31 33 33 32 26 33 31 28 35 34 33 33 35 38 35 37 42 42 43 41 31 34 37 43 46 42 55 52 55 57 59 54
7 6 4 5 3 5 4 8 13 2 2 4 11 19 24 25 27 30 33 33 31 26 28 28 23 30 31 33 33 35 35 34 39 39 42 43 40 35 39 46 41 43 45 49 54 56 58 57 59
2 6 2 6 3 15 10 6 5 5 3 12 17 24 25 28 30 32 33 32 30 26 23 24 23 28 30 32 32 35 34 34 38 38 40 39 39 34 36 35 41 41 53 51 54 53 55 56 56
4 4 5 5 1 3 3 7 5 7 12 15 16 24 27 30 31 33 34 30 28 24 20 20 19 22 26 30 31 34 33 34 37 38 39 38 36 34 30 29 31 38 38 47 47 46 50 56 57
5 1 4 1 5 6 5 6 5 5 11 14 13 14 24 28 32 34 33 31 26 20 17 13 13 16 20 25 29 33 30 31 34 34 27 35 29 26 23 13 19 30 36 32 36 41 48 51 51
3 2 4 4 2 3 5 5 5 4 7 11 13 20 24 27 31 33 32 29 24 19 14 5 4 10 14 18 28 34 27 29 34 30 34 30 24 25 31 29 24 18 30 23 20 20 21 42 49
4 6 4 2 4 5 7 15 5 5 5 7 13 21 24 25 30 31 31 30 26 25 18 14 8 9 14 19 29 39 28 25 29 27 29 30 24 25 26 26 28 22 19 16 21 22 24 21 35
Wind_Direction
270 197 173 158 104 62 244 235 198 204 206 213 169 177 204 205 177 208 130 5 352 343 333 315 297 244 232 224 216 214 211 212 206 201 198 197 194 189 189 187 185 185 186 181 178 174 170 168 164
263 169 163 154 136 215 246 188 214 208 189 123 205 227 234 250 246 261 294 311 331 332 323 328 301 261 237 223 219 214 211 211 209 204 202 201 199 194 192 191 189 187 187 186 181 171 179 172 170
203 176 164 158 199 230 250 170 220 229 231 241 294 234 245 238 239 257 311 314 314 316 319 318 314 278 241 226 219 215 211 210 209 207 205 203 201 199 196 195 194 190 189 191 186 178 179 178 172
184 175 159 173 233 246 246 97 106 50 264 252 264 271 253 260 290 302 293 301 305 310 316 314 308 276 246 228 218 215 213 209 210 209 208 205 203 202 200 199 198 195 194 194 187 189 181 181 176
186 171 194 241 246 257 231 163 61 207 266 220 199 255 258 253 261 283 294 300 303 304 312 314 313 281 245 230 220 219 218 212 211 210 209 208 205 204 204 201 201 200 198 197 192 193 187 185 181
182 162 192 233 241 247 295 251 250 222 248 273 261 252 262 266 284 281 280 280 295 299 301 308 306 295 244 234 225 222 221 216 212 212 211 209 208 206 205 203 203 203 200 198 199 195 191 188 185
158 148 235 258 258 279 56 332 347 13 328 327 310 261 266 249 275 289 287 284 277 279 284 290 295 293 265 234 234 228 223 221 216 213 213 212 210 209 208 206 205 204 202 200 201 194 192 192 190
192 153 258 245 263 277 345 346 355 19 286 302 277 264 294 289 294 300 299 297 291 292 292 299 297 287 279 247 235 233 228 222 219 216 214 215 215 214 212 210 208 206 204 200 203 195 196 195 192
185 246 255 252 224 261 8 2 316 300 288 282 272 279 285 293 295 295 293 289 284 274 290 294 298 290 262 257 241 235 233 225 222 220 217 215 215 217 217 214 211 208 205 203 204 201 196 197 193
175 218 236 206 26 303 309 314 312 303 292 284 289 287 289 293 298 299 294 288 286 283 277 289 293 301 282 252 250 236 235 230 225 222 221 216 215 217 216 215 215 211 207 205 206 201 198 196 192
230 236 330 294 297 306 300 297 278 282 282 281 285 291 293 295 296 298 298 292 288 280 278 280 284 288 297 260 255 243 235 235 231 224 222 218 218 218 217 216 214 213 210 205 207 202 200 197 195
271 257 254 250 270 293 283 297 285 270 268 283 287 287 288 285 285 289 295 296 295 288 273 275 277 276 283 285 252 251 241 235 235 231 225 220 219 218 217 217 214 211 209 208 208 207 199 197 197
224 257 270 280 294 281 286 291 287 288 291 295 289 287 289 291 291 289 289 290 292 289 282 272 274 273 272 279 268 247 243 238 238 236 232 225 222 220 218 218 215 213 210 211 211 208 196 196 195
273 311 307 307 297 295 297 293 316 283 293 288 294 297 293 289 289 293 288 287 283 282 283 279 278 270 269 270 270 261 245 239 235 238 233 231 226 223 222 218 218 216 214 213 215 208 196 195 194
301 312 308 282 274 282 305 288 265 271 281 285 287 288 289 291 292 281 284 285 282 279 280 279 276 275 269 264 269 265 249 243 237 238 236 229 229 227 225 222 220 220 215 214 214 204 196 194 193
276 221 270 270 47 238 177 269 266 270 274 285 282 279 278 278 281 286 284 281 281 280 273 276 273 268 267 263 265 263 262 245 241 241 234 232 227 228 228 225 223 220 220 214 211 202 194 193 192
222 254 235 281 192 242 191 263 259 267 283 281 275 277 277 278 278 274 278 282 276 276 276 265 270 264 260 260 257 261 254 249 240 237 235 235 231 222 225 229 222 224 221 213 207 197 195 191 191
257 226 257 259 262 306 279 271 272 272 276 268 272 277 282 284 286 292 285 281 279 275 273 266 264 266 260 253 250 254 256 251 241 237 234 233 229 226 223 222 225 228 220 212 203 191 190 187 187
270 270 268 273 277 270 270 271 268 280 278 275 293 335 320 312 305 303 298 281 280 276 272 272 269 263 260 247 243 247 252 248 236 233 234 235 230 223 225 232 220 221 222 217 207 196 190 181 186
247 260 269 277 277 268 284 277 279 280 268 181 299 329 325 323 324 320 308 298 283 272 268 270 272 265 258 251 238 244 250 248 234 226 228 231 232 229 233 237 225 222 223 208 207 191 181 174 187
257 258 272 271 295 289 274 282 275 262 168 141 342 321 319 316 318 319 314 308 295 285 271 266 267 264 260 251 239 241 249 240 225 223 222 225 227 229 231 237 237 225 216 192 191 188 177 177 187
277 246 262 284 305 285 65 295 292 292 204 358 343 329 326 324 318 314 309 308 301 291 281 268 261 257 262 251 245 236 241 232 220 218 222 222 217 219 227 228 230 216 193 197 190 187 197 182 187
242 329 287 284 281 296 256 227 272 126 232 329 321 324 319 315 312 310 307 306 300 293 289 274 259 256 258 251 242 234 236 237 218 208 219 211 216 217 223 219 215 213 193 197 196 188 194 191 194
335 343 314 37 71 281 241 195 288 279 282 303 315 318 318 317 316 311 312 311 308 299 297 279 258 250 247 247 235 227 231 229 220 198 212 209 208 212 229 225 216 210 210 207 201 201 198 196 200
50 41 325 347 354 230 284 293 263 169 252 280 314 322 324 322 320 318 317 319 316 310 300 288 255 247 242 242 229 219 224 221 217 197 201 205 206 208 222 218 215 207 218 208 203 208 206 198 203
207 158 207 288 278 295 283 239 266 188 183 344 338 328 328 331 330 326 325 324 321 310 304 295 259 244 240 237 228 211 219 215 214 216 208 205 204 207 220 221 213 212 200 207 206 204 204 204 209
266 202 205 270 109 358 264 285 265 234 346 344 333 332 335 328 329 330 334 333 328 321 313 294 274 248 236 231 223 203 212 210 209 209 210 211 202 198 205 209 219 205 217 208 215 208 208 205 211
174 277 336 276 304 304 280 279 251 311 329 326 324 329 325 328 336 339 341 342 336 330 331 295 264 256 237 227 209 195 202 204 207 205 204 188 190 196 197 198 214 215 209 218 216 220 212 213 211
348 312 243 254 155 257 303 265 207 239 291 313 325 334 330 333 336 342 350 353 350 346 356 354 247 230 222 208 196 184 192 194 204 205 203 199 189 195 205 199 205 230 219 195 197 215 226 219 216
190 216 230 269 308 257 267 283 182 217 273 330 331 333 336 341 344 353 2 5 8 6 17 47 79 137 181 180 183 180 195 184 194 200 206 202 186 185 174 182 176 182 197 205 211 218 212 215 219